Time,TemperatureF,DewpointF,PressureIn,WindDirection,WindDirectionDegrees,WindSpeedMPH,WindSpeedGustMPH,Humidity,HourlyPrecipIn,Conditions,Clouds,dailyrainin,SoftwareType,DateUTC
2013-03-25 00:02:00,29.0,21.0,29.73,NW,325,0.0,-999.0,72,-99.99,,,-99.99,,2013-03-25 04:02:00,
2013-03-25 00:12:00,29.0,21.0,29.73,NW,325,0.0,-999.0,72,-99.99,,,-99.99,,2013-03-25 04:12:00,
2013-03-25 00:22:00,29.0,21.0,29.73,NW,325,0.0,-999.0,72,-99.99,,,-99.99,,2013-03-25 04:22:00,
2013-03-25 00:33:00,28.0,21.0,29.72,NW,325,0.0,-999.0,75,-99.99,,,-99.99,,2013-03-25 04:33:00,
2013-03-25 00:43:00,28.0,21.0,29.72,NW,325,0.0,-999.0,75,-99.99,,,-99.99,,2013-03-25 04:43:00,
2013-03-25 00:52:00,28.0,21.0,29.72,NW,325,0.0,-999.0,76,-99.99,,,-99.99,,2013-03-25 04:52:00,
2013-03-25 01:03:00,28.0,21.0,29.72,NW,325,0.0,-999.0,76,-99.99,,,-99.99,,2013-03-25 05:03:00,
2013-03-25 01:12:00,28.0,21.0,29.72,NW,325,0.0,-999.0,76,-99.99,,,-99.99,,2013-03-25 05:12:00,
2013-03-25 01:22:00,28.0,21.0,29.71,NW,325,0.0,-999.0,76,-99.99,,,-99.99,,2013-03-25 05:22:00,
2013-03-25 01:32:00,28.0,21.0,29.71,NW,325,0.0,-999.0,76,-99.99,,,-99.99,,2013-03-25 05:32:00,
2013-03-25 01:42:00,28.0,21.0,29.71,NW,325,0.0,-999.0,76,-99.99,,,-99.99,,2013-03-25 05:42:00,
2013-03-25 01:52:00,28.0,21.0,29.70,NW,323,0.0,-999.0,76,-99.99,,,-99.99,,2013-03-25 05:52:00,
2013-03-25 02:02:00,28.0,22.0,29.70,NW,323,0.0,-999.0,77,-99.99,,,-99.99,,2013-03-25 06:02:00,
2013-03-25 02:12:00,28.0,22.0,29.70,NW,323,0.0,-999.0,77,-99.99,,,-99.99,,2013-03-25 06:12:00,
2013-03-25 02:22:00,28.0,22.0,29.69,NW,323,0.0,-999.0,77,-99.99,,,-99.99,,2013-03-25 06:22:00,
2013-03-25 02:32:00,27.0,21.0,29.69,NW,325,0.0,-999.0,78,-99.99,,,-99.99,,2013-03-25 06:32:00,
2013-03-25 02:42:00,27.0,21.0,29.69,NW,325,0.0,-999.0,78,-99.99,,,-99.99,,2013-03-25 06:42:00,
2013-03-25 02:53:00,27.0,21.0,29.69,NW,325,0.0,-999.0,78,-99.99,,,-99.99,,2013-03-25 06:53:00,
2013-03-25 03:02:00,27.0,21.0,29.68,NW,325,0.0,-999.0,79,-99.99,,,-99.99,,2013-03-25 07:02:00,
2013-03-25 03:12:00,27.0,21.0,29.68,NW,325,0.0,-999.0,79,-99.99,,,-99.99,,2013-03-25 07:12:00,
2013-03-25 03:22:00,27.0,22.0,29.68,NW,323,0.0,-999.0,80,-99.99,,,-99.99,,2013-03-25 07:22:00,
2013-03-25 03:32:00,26.0,21.0,29.68,NW,323,0.0,-999.0,81,-99.99,,,-99.99,,2013-03-25 07:32:00,
2013-03-25 03:42:00,26.0,21.0,29.68,NW,323,0.0,-999.0,81,-99.99,,,-99.99,,2013-03-25 07:42:00,
2013-03-25 03:53:00,26.0,21.0,29.67,NW,323,0.0,-999.0,81,-99.99,,,-99.99,,2013-03-25 07:53:00,
2013-03-25 04:03:00,26.0,21.0,29.67,NW,323,0.0,-999.0,81,-99.99,,,-99.99,,2013-03-25 08:03:00,
2013-03-25 04:12:00,26.0,21.0,29.67,NW,323,0.0,-999.0,81,-99.99,,,-99.99,,2013-03-25 08:12:00,
2013-03-25 04:23:00,26.0,21.0,29.67,NW,323,0.0,-999.0,82,-99.99,,,-99.99,,2013-03-25 08:23:00,
2013-03-25 04:32:00,26.0,21.0,29.66,NW,323,0.0,-999.0,82,-99.99,,,-99.99,,2013-03-25 08:32:00,
2013-03-25 04:43:00,26.0,21.0,29.66,NW,323,0.0,-999.0,82,-99.99,,,-99.99,,2013-03-25 08:43:00,
2013-03-25 04:52:00,26.0,21.0,29.66,NW,320,0.0,-999.0,82,-99.99,,,-99.99,,2013-03-25 08:52:00,
2013-03-25 05:02:00,26.0,22.0,29.66,NW,320,0.0,-999.0,83,-99.99,,,-99.99,,2013-03-25 09:02:00,
2013-03-25 05:12:00,26.0,22.0,29.66,NW,320,0.0,-999.0,83,-99.99,,,-99.99,,2013-03-25 09:12:00,
2013-03-25 05:22:00,25.0,21.0,29.65,NW,311,0.0,-999.0,83,-99.99,,,-99.99,,2013-03-25 09:22:00,
2013-03-25 05:33:00,25.0,21.0,29.65,NW,311,0.0,-999.0,83,-99.99,,,-99.99,,2013-03-25 09:33:00,
2013-03-25 05:43:00,25.0,21.0,29.65,NW,311,0.0,-999.0,83,-99.99,,,-99.99,,2013-03-25 09:43:00,
2013-03-25 05:53:00,25.0,21.0,29.65,NW,309,0.0,-999.0,84,-99.99,,,-99.99,,2013-03-25 09:53:00,
2013-03-25 06:03:00,25.0,21.0,29.65,NW,309,0.0,-999.0,84,-99.99,,,-99.99,,2013-03-25 10:03:00,
2013-03-25 06:12:00,25.0,21.0,29.65,NW,309,0.0,-999.0,84,-99.99,,,-99.99,,2013-03-25 10:12:00,
2013-03-25 06:22:00,25.0,21.0,29.64,NW,308,0.0,-999.0,85,-99.99,,,-99.99,,2013-03-25 10:22:00,
2013-03-25 06:33:00,25.0,21.0,29.62,NW,305,0.0,-999.0,85,-99.99,,,-99.99,,2013-03-25 10:33:00,
2013-03-25 06:43:00,25.0,21.0,29.62,NW,305,0.0,-999.0,85,-99.99,,,-99.99,,2013-03-25 10:43:00,
2013-03-25 06:54:00,25.0,21.0,29.62,WNW,301,0.0,-999.0,86,-99.99,,,-99.99,,2013-03-25 10:54:00,
2013-03-25 07:03:00,25.0,21.0,29.62,NW,311,1.0,-999.0,85,-99.99,,,-99.99,,2013-03-25 11:03:00,
2013-03-25 07:12:00,25.0,21.0,29.62,NW,306,2.0,-999.0,86,-99.99,,,-99.99,,2013-03-25 11:12:00,
2013-03-25 07:23:00,25.0,21.0,29.62,NW,306,2.0,-999.0,86,-99.99,,,-99.99,,2013-03-25 11:23:00,
2013-03-25 07:32:00,25.0,21.0,29.63,NW,305,2.0,-999.0,86,-99.99,,,-99.99,,2013-03-25 11:32:00,
2013-03-25 07:42:00,25.0,21.0,29.63,NW,305,2.0,-999.0,86,-99.99,,,-99.99,,2013-03-25 11:42:00,
2013-03-25 07:53:00,25.0,21.0,29.63,NW,305,1.0,-999.0,85,-99.99,,,-99.99,,2013-03-25 11:53:00,
2013-03-25 08:02:00,25.0,21.0,29.63,NW,305,1.0,-999.0,85,-99.99,,,-99.99,,2013-03-25 12:02:00,
2013-03-25 08:13:00,25.0,21.0,29.63,NW,305,1.0,-999.0,85,-99.99,,,-99.99,,2013-03-25 12:13:00,
2013-03-25 08:23:00,25.0,21.0,29.63,NW,305,1.0,-999.0,85,-99.99,,,-99.99,,2013-03-25 12:23:00,
2013-03-25 08:32:00,26.0,22.0,29.64,NW,323,2.0,-999.0,83,-99.99,,,-99.99,,2013-03-25 12:32:00,
2013-03-25 08:43:00,26.0,22.0,29.64,NW,323,2.0,-999.0,83,-99.99,,,-99.99,,2013-03-25 12:43:00,
2013-03-25 08:54:00,26.0,22.0,29.64,NW,323,2.0,-999.0,83,-99.99,,,-99.99,,2013-03-25 12:54:00,
2013-03-25 09:03:00,28.0,23.0,29.64,NW,322,0.0,-999.0,81,-99.99,,,-99.99,,2013-03-25 13:03:00,
2013-03-25 09:13:00,28.0,23.0,29.64,NW,322,0.0,-999.0,81,-99.99,,,-99.99,,2013-03-25 13:13:00,
2013-03-25 09:23:00,28.0,23.0,29.64,NW,322,0.0,-999.0,81,-99.99,,,-99.99,,2013-03-25 13:23:00,
2013-03-25 09:32:00,30.0,23.0,29.63,NW,318,0.0,-999.0,76,-99.99,,,-99.99,,2013-03-25 13:32:00,
2013-03-25 09:43:00,30.0,23.0,29.63,NW,318,0.0,-999.0,76,-99.99,,,-99.99,,2013-03-25 13:43:00,
2013-03-25 09:53:00,31.0,24.0,29.62,NW,312,1.0,-999.0,74,-99.99,,,-99.99,,2013-03-25 13:53:00,
2013-03-25 10:03:00,32.0,24.0,29.65,NW,313,1.0,-999.0,72,-99.99,,,-99.99,,2013-03-25 14:03:00,
2013-03-25 10:12:00,32.0,24.0,29.65,NW,313,1.0,-999.0,72,-99.99,,,-99.99,,2013-03-25 14:12:00,
2013-03-25 10:23:00,33.0,24.0,29.64,NW,309,2.0,-999.0,70,-99.99,,,-99.99,,2013-03-25 14:23:00,
2013-03-25 10:32:00,34.0,26.0,29.63,NW,308,0.0,-999.0,71,-99.99,,,-99.99,,2013-03-25 14:32:00,
2013-03-25 10:42:00,34.0,26.0,29.63,NW,308,0.0,-999.0,71,-99.99,,,-99.99,,2013-03-25 14:42:00,
2013-03-25 10:53:00,34.0,26.0,29.63,NW,308,0.0,-999.0,71,-99.99,,,-99.99,,2013-03-25 14:53:00,
2013-03-25 11:03:00,36.0,26.0,29.62,WNW,284,3.0,-999.0,66,-99.99,,,-99.99,,2013-03-25 15:03:00,
2013-03-25 11:13:00,36.0,26.0,29.62,WNW,284,3.0,-999.0,66,-99.99,,,-99.99,,2013-03-25 15:13:00,
2013-03-25 11:23:00,36.0,26.0,29.62,WNW,284,3.0,-999.0,66,-99.99,,,-99.99,,2013-03-25 15:23:00,
2013-03-25 11:33:00,36.0,26.0,29.62,WNW,284,3.0,-999.0,66,-99.99,,,-99.99,,2013-03-25 15:33:00,
2013-03-25 11:42:00,36.0,26.0,29.62,WNW,284,3.0,-999.0,66,-99.99,,,-99.99,,2013-03-25 15:42:00,
2013-03-25 11:54:00,38.0,27.0,29.61,ESE,120,0.0,-999.0,63,-99.99,,,-99.99,,2013-03-25 15:54:00,
2013-03-25 12:03:00,38.0,27.0,29.61,ESE,120,0.0,-999.0,63,-99.99,,,-99.99,,2013-03-25 16:03:00,
2013-03-25 12:12:00,38.0,27.0,29.61,ESE,120,0.0,-999.0,63,-99.99,,,-99.99,,2013-03-25 16:12:00,
2013-03-25 12:23:00,38.0,27.0,29.61,ESE,120,0.0,-999.0,63,-99.99,,,-99.99,,2013-03-25 16:23:00,
2013-03-25 12:33:00,39.0,27.0,29.59,ENE,69,3.0,-999.0,62,-99.99,,,-99.99,,2013-03-25 16:33:00,
2013-03-25 12:43:00,39.0,27.0,29.59,ENE,69,3.0,-999.0,62,-99.99,,,-99.99,,2013-03-25 16:43:00,
2013-03-25 12:53:00,40.0,28.0,29.59,NE,38,1.0,-999.0,61,-99.99,,,-99.99,,2013-03-25 16:53:00,
2013-03-25 13:03:00,39.0,26.0,29.59,ENE,58,3.0,-999.0,60,-99.99,,,-99.99,,2013-03-25 17:03:00,
2013-03-25 13:12:00,39.0,26.0,29.59,ENE,58,3.0,-999.0,60,-99.99,,,-99.99,,2013-03-25 17:12:00,
2013-03-25 13:23:00,39.0,25.0,29.58,SSE,155,2.0,-999.0,58,-99.99,,,-99.99,,2013-03-25 17:23:00,
2013-03-25 13:33:00,39.0,25.0,29.58,SSE,155,2.0,-999.0,58,-99.99,,,-99.99,,2013-03-25 17:33:00,
2013-03-25 13:42:00,39.0,25.0,29.58,SSE,155,2.0,-999.0,58,-99.99,,,-99.99,,2013-03-25 17:42:00,
2013-03-25 13:53:00,39.0,26.0,29.57,NNE,25,1.0,-999.0,60,-99.99,,,-99.99,,2013-03-25 17:53:00,
2013-03-25 14:03:00,38.0,25.0,29.56,NE,42,2.0,-999.0,59,-99.99,,,-99.99,,2013-03-25 18:03:00,
2013-03-25 14:13:00,38.0,25.0,29.56,NE,42,2.0,-999.0,59,-99.99,,,-99.99,,2013-03-25 18:13:00,
2013-03-25 14:23:00,38.0,26.0,29.56,ESE,117,2.0,-999.0,61,-99.99,,,-99.99,,2013-03-25 18:23:00,
2013-03-25 14:33:00,39.0,26.0,29.55,ENE,68,1.0,-999.0,60,-99.99,,,-99.99,,2013-03-25 18:33:00,
2013-03-25 14:43:00,39.0,26.0,29.55,ENE,68,1.0,-999.0,60,-99.99,,,-99.99,,2013-03-25 18:43:00,
2013-03-25 14:53:00,39.0,26.0,29.54,East,86,2.0,-999.0,59,-99.99,,,-99.99,,2013-03-25 18:53:00,
2013-03-25 15:03:00,39.0,26.0,29.54,East,86,2.0,-999.0,59,-99.99,,,-99.99,,2013-03-25 19:03:00,
2013-03-25 15:13:00,39.0,26.0,29.54,East,86,2.0,-999.0,59,-99.99,,,-99.99,,2013-03-25 19:13:00,
2013-03-25 15:23:00,39.0,26.0,29.53,ENE,68,4.0,-999.0,60,-99.99,,,-99.99,,2013-03-25 19:23:00,
2013-03-25 15:33:00,39.0,26.0,29.52,NE,34,2.0,-999.0,60,-99.99,,,-99.99,,2013-03-25 19:33:00,
2013-03-25 15:43:00,39.0,26.0,29.52,NE,34,2.0,-999.0,60,-99.99,,,-99.99,,2013-03-25 19:43:00,
2013-03-25 15:53:00,39.0,25.0,29.51,NE,41,3.0,-999.0,58,-99.99,,,-99.99,,2013-03-25 19:53:00,
2013-03-25 16:02:00,39.0,26.0,29.50,NE,45,3.0,-999.0,59,-99.99,,,-99.99,,2013-03-25 20:02:00,
2013-03-25 16:12:00,39.0,26.0,29.50,NE,45,3.0,-999.0,59,-99.99,,,-99.99,,2013-03-25 20:12:00,
2013-03-25 16:22:00,39.0,26.0,29.50,NE,45,3.0,-999.0,59,-99.99,,,-99.99,,2013-03-25 20:22:00,
2013-03-25 16:32:00,39.0,26.0,29.50,NE,45,3.0,-999.0,59,-99.99,,,-99.99,,2013-03-25 20:32:00,
2013-03-25 16:42:00,39.0,26.0,29.50,NE,45,3.0,-999.0,59,-99.99,,,-99.99,,2013-03-25 20:42:00,
2013-03-25 17:03:00,38.0,26.0,29.46,ENE,73,2.0,-999.0,61,-99.99,,,-99.99,,2013-03-25 21:03:00,
2013-03-25 17:13:00,38.0,26.0,29.46,ENE,73,2.0,-999.0,61,-99.99,,,-99.99,,2013-03-25 21:13:00,
2013-03-25 17:22:00,38.0,25.0,29.47,East,83,1.0,-999.0,59,-99.99,,,-99.99,,2013-03-25 21:22:00,
2013-03-25 17:33:00,39.0,25.0,29.47,NE,48,1.0,-999.0,58,-99.99,,,-99.99,,2013-03-25 21:33:00,
2013-03-25 17:43:00,39.0,25.0,29.47,NE,48,1.0,-999.0,58,-99.99,,,-99.99,,2013-03-25 21:43:00,
2013-03-25 17:52:00,39.0,25.0,29.47,NE,48,1.0,-999.0,58,-99.99,,,-99.99,,2013-03-25 21:52:00,
2013-03-25 18:03:00,38.0,25.0,29.48,ESE,110,2.0,-999.0,59,-99.99,,,-99.99,,2013-03-25 22:03:00,
2013-03-25 18:12:00,38.0,25.0,29.48,ESE,110,2.0,-999.0,59,-99.99,,,-99.99,,2013-03-25 22:12:00,
2013-03-25 18:23:00,38.0,26.0,29.48,NE,41,3.0,-999.0,61,-99.99,,,-99.99,,2013-03-25 22:23:00,
2013-03-25 18:33:00,38.0,27.0,29.48,ESE,119,2.0,-999.0,63,-99.99,,,-99.99,,2013-03-25 22:33:00,
2013-03-25 18:42:00,38.0,27.0,29.48,ESE,119,2.0,-999.0,63,-99.99,,,-99.99,,2013-03-25 22:42:00,
2013-03-25 18:52:00,37.0,26.0,29.48,ESE,112,0.0,-999.0,64,-99.99,,,-99.99,,2013-03-25 22:52:00,
2013-03-25 19:03:00,37.0,26.0,29.49,NE,35,1.0,-999.0,65,-99.99,,,-99.99,,2013-03-25 23:03:00,
2013-03-25 19:12:00,37.0,26.0,29.49,NE,35,1.0,-999.0,65,-99.99,,,-99.99,,2013-03-25 23:12:00,
2013-03-25 19:23:00,37.0,27.0,29.49,NNE,24,0.0,-999.0,66,-99.99,,,-99.99,,2013-03-25 23:23:00,
2013-03-25 19:32:00,37.0,27.0,29.49,North,11,0.0,-999.0,67,-99.99,,,-99.99,,2013-03-25 23:32:00,
2013-03-25 19:43:00,37.0,27.0,29.49,North,11,0.0,-999.0,67,-99.99,,,-99.99,,2013-03-25 23:43:00,
2013-03-25 19:53:00,36.0,26.0,29.49,NNE,18,0.0,-999.0,68,-99.99,,,-99.99,,2013-03-25 23:53:00,
2013-03-25 20:02:00,36.0,27.0,29.50,NNE,32,1.0,-999.0,69,-99.99,,,-99.99,,2013-03-26 00:02:00,
2013-03-25 20:12:00,36.0,27.0,29.50,NNE,32,1.0,-999.0,69,-99.99,,,-99.99,,2013-03-26 00:12:00,
2013-03-25 20:22:00,36.0,27.0,29.50,NNE,32,1.0,-999.0,69,-99.99,,,-99.99,,2013-03-26 00:22:00,
2013-03-25 20:32:00,36.0,28.0,29.53,North,8,0.0,-999.0,71,-99.99,,,-99.99,,2013-03-26 00:32:00,
2013-03-25 20:42:00,36.0,28.0,29.53,North,8,0.0,-999.0,71,-99.99,,,-99.99,,2013-03-26 00:42:00,
2013-03-25 20:52:00,36.0,28.0,29.53,North,8,0.0,-999.0,71,-99.99,,,-99.99,,2013-03-26 00:52:00,
2013-03-25 21:02:00,36.0,28.0,29.54,NE,37,0.0,-999.0,71,-99.99,,,-99.99,,2013-03-26 01:02:00,
2013-03-25 21:12:00,36.0,28.0,29.54,NE,37,0.0,-999.0,71,-99.99,,,-99.99,,2013-03-26 01:12:00,
2013-03-25 21:23:00,35.0,27.0,29.54,North,360,0.0,-999.0,73,-99.99,,,-99.99,,2013-03-26 01:23:00,
2013-03-25 21:32:00,35.0,28.0,29.54,ENE,65,0.0,-999.0,74,-99.99,,,-99.99,,2013-03-26 01:32:00,
2013-03-25 21:42:00,35.0,28.0,29.54,ENE,65,0.0,-999.0,74,-99.99,,,-99.99,,2013-03-26 01:42:00,
2013-03-25 21:53:00,35.0,29.0,29.54,East,89,0.0,-999.0,78,-99.99,,,-99.99,,2013-03-26 01:53:00,
2013-03-25 22:02:00,34.0,29.0,29.55,NNE,23,0.0,-999.0,81,-99.99,,,-99.99,,2013-03-26 02:02:00,
2013-03-25 22:12:00,34.0,29.0,29.55,NNE,23,0.0,-999.0,81,-99.99,,,-99.99,,2013-03-26 02:12:00,
2013-03-25 22:22:00,34.0,29.0,29.55,NNE,21,0.0,-999.0,82,-99.99,,,-99.99,,2013-03-26 02:22:00,
2013-03-25 22:32:00,34.0,29.0,29.54,NNE,21,0.0,-999.0,83,-99.99,,,-99.99,,2013-03-26 02:32:00,
2013-03-25 22:42:00,34.0,29.0,29.54,NNE,21,0.0,-999.0,83,-99.99,,,-99.99,,2013-03-26 02:42:00,
2013-03-25 22:52:00,34.0,29.0,29.54,NNE,21,0.0,-999.0,83,-99.99,,,-99.99,,2013-03-26 02:52:00,
2013-03-25 23:02:00,34.0,29.0,29.53,NNE,21,0.0,-999.0,82,-99.99,,,-99.99,,2013-03-26 03:02:00,
2013-03-25 23:12:00,34.0,29.0,29.53,NNE,21,0.0,-999.0,82,-99.99,,,-99.99,,2013-03-26 03:12:00,
2013-03-25 23:22:00,34.0,29.0,29.53,NNE,20,0.0,-999.0,82,-99.99,,,-99.99,,2013-03-26 03:22:00,
2013-03-25 23:33:00,34.0,29.0,29.52,NNE,20,0.0,-999.0,81,-99.99,,,-99.99,,2013-03-26 03:33:00,
2013-03-25 23:42:00,34.0,29.0,29.52,NNE,20,0.0,-999.0,81,-99.99,,,-99.99,,2013-03-26 03:42:00,
2013-03-25 23:53:00,34.0,29.0,29.52,NNE,20,0.0,-999.0,81,-99.99,,,-99.99,,2013-03-26 03:53:00,